Regional Weather Roundup
Issued by NWS

Home | Current Version | Previous Version | Graphics & Text | Print | Product List | Glossary On
Versions: 1 2 3 4 5 6 7 8 9 10 11 12 13 14 15 16 17 18 19 20 21 22 23 24 25 26 27 28 29 30 31 32 33 34 35 36 37 38 39 40 41 42 43 44 45 46 47 48 49 50
000
ASUS43 KIND 050009
RWRIN

WEATHER ROUNDUP FOR INDIANA
NATIONAL WEATHER SERVICE INDIANAPOLIS IN
700 PM EST WED MAR 04 2015

NOTE: "FAIR" INDICATES FEW OR NO CLOUDS BELOW 12,000 FEET WITH NO
SIGNIFICANT WEATHER AND/OR OBSTRUCTIONS TO VISIBILITY.

* - STATION DOES NOT REPORT WEATHER SUCH AS PRECIPITATION OR FOG.

+ - STATION NOT QUALITY CONTROLLED BY THE NATIONAL WEATHER SERVICE.
    USE DATA WITH CAUTION...ESPECIALLY DEWPOINT AND RELATIVE
    HUMIDITY OBSERVATIONS.

INZ001>003-010>013-019-020-050100-
NORTHWEST INDIANA

CITY           SKY/WX    TMP DP  RH WIND       PRES   REMARKS
GARY /AIRPORT/ MOCLDY    23  -8  25 NW12G23   30.22R WCI  12
KNOX *+          N/A     19  -6  32 N10       30.20R WCI   8
LA PORTE +     CLOUDY    21   6  53 NW9       30.19R WCI  10
6HR MIN TEMP:  21; 6HR MAX TEMP:  25;

MICHIGAN CITY+ MOCLDY    21   1  42 NW7       30.20R WCI  13
MONTICELLO +   CLOUDY    19  13  75 NW12      30.19R WCI   7
6HR MIN TEMP:  19; 6HR MAX TEMP:  22;

RENSSELAER +   CLOUDY    21  14  73 W9        30.22R WCI  11
VALPARAISO     CLOUDY    19   1  45 N8        30.19R WCI   9
6HR MIN TEMP:  19; 6HR MAX TEMP:  24; 6HR PCP: TRACE;


$$

LMZ046-743>745-050100-
SOUTHERN LAKE MICHIGAN

STATION/POSITION TIME  TEMP WIND        PRES
                       AIR  DIR/SP/G
                 (UTC) (F)  (DEG/KT/KT) (MB)
MICHIGAN CITY    0000   19  290/ 13/ 16   N/A

$$

INZ004-005-014>016-021>024-050100-
NORTH CENTRAL INDIANA

CITY           SKY/WX    TMP DP  RH WIND       PRES   REMARKS
ELKHART        PTCLDY    19   3  49 N7        30.17R WCI  10
GOSHEN         MOCLDY    19   7  59 NW16      30.15R WCI   4
6HR MIN TEMP:  19; 6HR MAX TEMP:  26;

LOGANSPORT +   CLOUDY    21   9  58 NW8       30.20R WCI  12
PERU/GRISSOM   CLOUDY    21   8  56 NW14      30.16R WCI   8
6HR MIN TEMP:  21; 6HR MAX TEMP:  28; 6HR PCP: TRACE;

ROCHESTER +    CLOUDY    23   9  54 NW14G20   30.20R WCI  11
SOUTH BEND     MOCLDY    20   5  52 N16       30.18R WCI   6
6HR MIN TEMP:  20; 6HR MAX TEMP:  25;

WARSAW +       CLOUDY    19   9  63 NW12G17   30.15R WCI   7

$$

INZ006>009-017-018-025>027-050100-
NORTHEAST INDIANA

CITY           SKY/WX    TMP DP  RH WIND       PRES   REMARKS
ANGOLA *+      CLEAR     18   7  62 NW13      30.12R WCI   4
AUBURN +       CLOUDY    21   9  58 NW13G22   30.13R WCI   9
FORT WAYNE     CLOUDY    21  11  65 NW15G24   30.12R WCI   8
6HR MIN TEMP:  21; 6HR MAX TEMP:  32;

HUNTINGTON +   CLOUDY    21   7  55 NW12G18   30.15R WCI   9
6HR MIN TEMP:  21; 6HR MAX TEMP:  31;


$$

INZ028-029-035-036-043>045-051>053-050100-
WEST CENTRAL INDIANA

CITY           SKY/WX    TMP DP  RH WIND       PRES   REMARKS
CRAWFORDSVL +  CLOUDY    17   5  59 NW14G22   30.21R WCI   3
6HR MIN TEMP:  17; 6HR MAX TEMP:  21;

GREENCASTLE +  CLOUDY    19   7  58 NW7       30.19R WCI  10
LAFAYETTE      MOCLDY    18   9  68 NW13      30.23R WCI   5
6HR MIN TEMP:  18; 6HR MAX TEMP:  20;

TERRE HAUTE    CLOUDY    19   9  65 NW12G18   30.22R WCI   7
6HR MIN TEMP:  19; 6HR MAX TEMP:  22; 6HR PCP: TRACE;


$$

INZ030>032-037>040-046>048-054>057-064-065-050100-
CENTRAL INDIANA

CITY           SKY/WX    TMP DP  RH WIND       PRES   REMARKS
CP ATTERBURY + FLURRIES  23  18  80 NW12      30.17R WCI  12
COLUMBUS       LGT SNOW  21  18  86 NW15      30.15R FOG     WCI   8
FRANKFORT +    CLOUDY    20  13  74 W13G18    30.21R WCI   7
6HR MIN TEMP:  20; 6HR MAX TEMP:  25;

GREENWOOD *+   CLOUDY    21  12  68 NW13      30.17R WCI   9
INDIANAPOLIS   CLOUDY    20  12  71 NW15      30.17R WCI   6
6HR MIN TEMP:  20; 6HR MAX TEMP:  29; 6HR PCP: TRACE;

-EAGLE CREEK   CLOUDY    19  12  74 NW14      30.18R WCI   6
6HR MIN TEMP:  19; 6HR MAX TEMP:  26; 6HR PCP: TRACE;

KOKOMO *+        N/A    N/A N/A N/A MISG        N/A
MARION +       CLOUDY    22  12  66 NW12      30.17R WCI  11
MT COMFORT *+  CLOUDY    21  10  63 NW13      30.16R WCI   9
SHELBYVILLE    CLOUDY    24  17  74 NW16      30.15R WCI  11
6HR MIN TEMP:  24; 6HR MAX TEMP:  34; 6HR PCP:  0.01;

ZIONSVILLE +   CLOUDY    21  12  69 NW10G17   30.18R WCI  10
6HR MIN TEMP:  21; 6HR MAX TEMP:  28;


$$

INZ033-034-041-042-049-050-058-059-050100-
EAST CENTRAL INDIANA

CITY           SKY/WX    TMP DP  RH WIND       PRES   REMARKS
MUNCIE         CLOUDY    23  14  68 NW17      30.13R WCI   9
6HR MIN TEMP:  23; 6HR MAX TEMP:  32; 6HR PCP: TRACE;


$$

INZ060-061-067>069-081>083-085>088-050100-
SOUTHWEST INDIANA

CITY           SKY/WX    TMP DP  RH WIND       PRES   REMARKS
EVANSVILLE     LGT SNOW  21  16  81 N9        30.23R VSB 3/4 WCI  11
6HR MIN TEMP:  21; 6HR MAX TEMP:  28; 6HR PCP:  0.32;

HUNTINGBURG *+   N/A     19  16  86 N13       30.20R VSB 1/2 WCI   7
6HR MIN TEMP:  19; 6HR MAX TEMP:  30; 6HR PCP:  0.09;

WASHINGTON +   LGT SNOW  19  16  86 NW12      30.22R WCI   7
6HR MIN TEMP:  19; 6HR MAX TEMP:  28;


$$

INZ062-063-066-070>080-084-089>092-050100-
SOUTH CENTRAL AND SOUTHEAST INDIANA

CITY           SKY/WX    TMP DP  RH WIND       PRES   REMARKS
BEDFORD +      LGT SNOW  23  19  86 N10       30.18R WCI  12
BLOOMINGTON    FLURRIES  22  15  75 NW6       30.16S WCI  14
6HR MIN TEMP:  21; 6HR MAX TEMP:  31; 6HR PCP:  0.02;

NORTH VERNON + LGT SNOW  25  25 100 NW9       30.13R VSB 3/4 WCI  15
SEYMOUR +      LGT SNOW  25  23  93 N13       30.16R WCI  13

$$




USA.gov is the U.S. government's official web portal to all federal, state and local government web resources and services.